[TLELIST] Archives

 

Current TLEs

November 23rd 2006 PDT

HST 1 20580U 90037B 06326.70786148 .00000509 00000-0 26836-4 0 7454 2 20580 028.4653 096.4388 0003508 069.2933 290.8034 15.00136311708924 ISS (ZARYA) 1 25544U 98067A 06327.52818287 .00016763 00000-0 98361-4 0 1210 2 25544 051.6337 086.1011 0010967 250.3761 131.8141 15.78368449458305 CXO 1 25867U 99040B 06326.37500000 +.00000524 +00000-0 +00000-0 0 00039 2 25867 060.6594 093.6961 5958138 287.7552 354.3890 00.37803695001474 ____________________________________________________________________ These 2-Line ...Continue Reading

Current TLEs

November 22nd 2006 PDT

HST 1 20580U 90037B 06324.77849593 +.00000508 +00000-0 +26770-4 0 07606 2 20580 028.4666 109.0266 0003522 049.9790 310.1105 15.00135239708637 ISS (ZARYA) 1 25544U 98067A 06326.51982752 .00015828 00000-0 93275-4 0 1150 2 25544 051.6356 091.3163 0010713 248.1038 160.6573 15.78330151458143 CXO 1 25867U 99040B 06323.62500000 +.00000510 +00000-0 +00000-0 0 00028 2 25867 060.6429 093.7339 5953736 287.8328 339.9604 00.37804306001463 ____________________________________________________________________ These 2-Line ...Continue Reading

Current TLEs

November 21st 2006 PDT

HST 1 20580U 90037B 06323.78054690 .00000501 00000-0 26169-4 0 7438 2 20580 028.4667 115.5337 0003489 038.7617 321.3224 15.00134484708485 ISS (ZARYA) 1 25544U 98067A 06325.51371382 .00017633 00000-0 10358-3 0 1099 2 25544 051.6332 096.5140 0010676 242.9320 205.2975 15.78301004457981 CXO 1 25867U 99040B 06323.62500000 +.00000510 +00000-0 +00000-0 0 00028 2 25867 060.6429 093.7339 5953736 287.8328 339.9604 00.37804306001463 ____________________________________________________________________ These 2-Line ...Continue Reading

Current TLEs

November 20th 2006 PDT

HST 1 20580U 90037B 06323.78054690 .00000501 00000-0 26169-4 0 7438 2 20580 028.4667 115.5337 0003489 038.7617 321.3224 15.00134484708485 ISS (ZARYA) 1 25544U 98067A 06324.49851317 .00018161 00000-0 10670-3 0 1023 2 25544 051.6323 101.7614 0011082 238.1494 197.9942 15.78265730457826 CXO 1 25867U 99040B 06323.62500000 +.00000510 +00000-0 +00000-0 0 00028 2 25867 060.6429 093.7339 5953736 287.8328 339.9604 00.37804306001463 ____________________________________________________________________ These 2-Line ...Continue Reading

Current TLEs

November 19th 2006 PDT

HST 1 20580U 90037B 06321.71811598 +.00000518 +00000-0 +27521-4 0 07461 2 20580 028.4667 128.9839 0003313 013.0095 347.0578 15.00133155708179 ISS (ZARYA) 1 25544U 98067A 06323.15219907 .00018052 00000-0 10632-3 0 945 2 25544 051.6322 108.7209 0011198 232.8476 108.8080 15.78215026457604 CXO 1 25867U 99040B 06321.12500000 +.00000473 +00000-0 +00000-0 0 00018 2 25867 060.6249 093.7673 5951132 287.9027 359.5566 00.37805149001459 ____________________________________________________________________ These 2-Line ...Continue Reading

Current TLEs

November 18th 2006 PDT

HST 1 20580U 90037B 06321.51852632 .00000480 00000-0 24557-4 0 7412 2 20580 028.4669 130.2853 0003273 010.7074 349.3604 15.00132801708148 ISS (ZARYA) 1 25544U 98067A 06322.53638256 .00017666 00000-0 10424-3 0 891 2 25544 051.6320 111.9025 0011255 230.2377 210.2647 15.78190320457516 CXO 1 25867U 99040B 06321.12500000 +.00000473 +00000-0 +00000-0 0 00018 2 25867 060.6249 093.7673 5951132 287.9027 359.5566 00.37805149001459 ____________________________________________________________________ These 2-Line ...Continue Reading

Current TLEs

November 17th 2006 PDT

HST 1 20580U 90037B 06319.85527371 .00000525 00000-0 28052-4 0 7408 2 20580 028.4670 141.1289 0003352 352.8930 007.1608 15.00131995707890 ISS (ZARYA) 1 25544U 98067A 06321.52141316 .00018102 00000-0 10689-3 0 805 2 25544 051.6324 117.1513 0011255 226.0685 204.0591 15.78153572457354 CXO 1 25867U 99040B 06321.12500000 +.00000473 +00000-0 +00000-0 0 00018 2 25867 060.6249 093.7673 5951132 287.9027 359.5566 00.37805149001459 ____________________________________________________________________ These 2-Line ...Continue Reading

Current TLEs

November 16th 2006 PDT

HST 1 20580U 90037B 06319.85527371 .00000525 00000-0 28052-4 0 7408 2 20580 028.4670 141.1289 0003352 352.8930 007.1608 15.00131995707890 ISS (ZARYA) 1 25544U 98067A 06320.50763567 .00016514 00000-0 98030-4 0 701 2 25544 051.6324 122.3860 0011518 221.1678 205.5040 15.78113309457198 CXO 1 25867U 99040B 06318.45833333 +.00000416 +00000-0 +00000-0 0 00004 2 25867 060.6119 093.8165 5948923 287.9678 356.4588 00.37804654001447 ____________________________________________________________________ These 2-Line ...Continue Reading

Current TLEs

November 15th 2006 PDT

HST 1 20580U 90037B 06317.92589969 +.00000740 +00000-0 +44948-4 0 07406 2 20580 028.4670 153.7092 0003430 331.0336 029.0065 15.00131222707609 ISS (ZARYA) 1 25544U 98067A 06319.30347627 .00018154 00000-0 10753-3 0 631 2 25544 051.6324 128.6062 0011461 215.6239 205.4412 15.78078395457006 CXO 1 25867U 99040B 06318.45833333 +.00000416 +00000-0 +00000-0 0 00004 2 25867 060.6119 093.8165 5948923 287.9678 356.4588 00.37804654001447 ____________________________________________________________________ These 2-Line ...Continue Reading

Current TLEs

November 14th 2006 PDT

HST 1 20580U 90037B 06317.85936958 .00000768 00000-0 47129-4 0 7394 2 20580 028.4669 154.1433 0003451 330.6003 029.4392 15.00131245707590 ISS (ZARYA) 1 25544U 98067A 06318.54043134 .00020216 00000-0 11938-3 0 584 2 25544 051.6311 132.5489 0011390 213.0832 190.1818 15.78057447456881 CXO 1 25867U 99040B 06315.83333333 +.00000351 +00000-0 +00000-0 0 09993 2 25867 060.6033 093.8684 5945978 288.0379 359.0389 00.37801660001436 ____________________________________________________________________ These 2-Line ...Continue Reading
  • This mailing list is a public mailing list - anyone may join or leave, at any time.
  • This mailing list is announce-only.

International Space Station (ISS) / Hubble Space Telescope (HST) / Chandra X-Ray Observatory Orbital Data via EMAIL

Privacy Policy:

Private list